CAPE
140 34 7 0 0 0 0 0 0 0 0 0 0 0 0 0 0 0 0 0 0 0 6 0 0 0 0 0 10 27 28 18 9
104 63 8 0 0 0 0 0 0 0 4 16 8 3 0 0 0 0 0 0 0 0 0 7 9 8 5 5 4 2 15 21 11
142 75 9 2 0 0 0 0 0 0 1 5 10 14 6 0 0 0 0 0 0 6 6 1 2 9 10 17 11 15 10 8 11
79 256 75 6 2 6 13 1 0 0 0 0 1 0 0 0 0 0 0 0 0 0 11 6 4 3 5 14 21 19 26 17 11
130 254 173 34 20 17 2 0 0 0 0 0 0 0 0 0 0 0 0 0 0 0 2 4 4 5 4 6 8 23 22 18 34
0 7 3 79 1 0 0 1 10 85 40 35 14 0 0 0 0 0 0 0 0 0 12 23 0 0 1 5 10 14 19 48 63
0 0 3 7 16 34 16 54 245 107 0 0 0 0 0 0 0 0 0 4 16 41 103 65 50 1 10 12 17 21 19 24 143
0 0 0 0 0 0 0 0 0 6 3 1 3 0 0 0 0 0 21 72 62 131 305 188 158 135 84 40 51 78 41 73 119
0 0 0 0 0 0 1 5 4 4 8 4 10 4 1 0 4 11 22 86 74 82 306 164 196 176 122 108 186 331 172 187 222
0 0 1 1 0 1 3 2 0 0 0 0 0 0 0 0 0 0 0 0 38 46 41 126 242 255 170 144 155 225 196 128 206
6 2 0 0 0 0 0 0 0 0 0 0 0 0 0 0 0 0 0 0 0 0 0 14 58 74 82 102 113 167 231 225 212
0 0 0 0 0 0 0 0 0 0 0 0 0 0 0 0 0 0 0 0 0 0 0 0 0 0 0 24 63 137 148 141 140
0 0 0 0 0 0 0 0 0 0 0 0 0 0 0 0 0 0 0 0 0 0 0 0 0 0 0 0 0 0 0 67 0
0 0 0 0 0 0 0 0 0 0 0 0 0 0 0 0 0 0 0 0 0 0 0 0 0 0 0 0 0 0 0 0 0
0 0 0 0 0 0 0 0 0 0 0 0 0 0 0 0 0 0 0 0 0 0 0 0 0 0 0 0 0 0 0 0 0
0 0 0 0 0 0 0 0 0 0 0 0 0 0 0 0 0 0 0 0 0 0 0 0 0 0 0 0 0 0 0 0 0
0 0 0 0 0 0 0 0 0 0 0 0 0 0 0 0 0 0 0 0 0 0 0 0 0 0 0 0 0 0 0 10 9
0 0 0 0 0 0 0 0 0 0 0 0 0 0 0 0 0 0 0 0 0 0 0 0 0 0 0 0 0 0 0 0 5
0 0 0 0 0 0 0 0 0 0 0 0 0 0 0 0 0 0 0 0 0 0 0 0 0 0 0 0 0 0 0 0 8
0 0 0 0 0 0 0 0 0 0 0 0 0 0 0 0 0 0 0 0 0 0 0 0 0 0 0 0 0 0 0 7 18
CIN
-278 -157 -14 -0 -0 -0 -0 -0 -0 -0 -0 -0 -0 -0 -0 -0 -0 -0 -0 -0 -0 -0 -0 -0 -0 -0 -0 -0 -0 -10 -0 -0 -0
-318 -458 -317 -0 -0 -0 -0 -0 -0 -0 -0 -0 -0 -0 -0 -0 -0 -0 -0 -0 -0 -0 -0 -0 -0 -0 -0 -0 -0 -0 -0 -0 -0
-238 -352 -539 -390 -0 -0 -0 -0 -0 -0 -0 -0 -0 -0 -1 -0 -0 -0 -0 -0 -0 -0 -0 -0 -0 -0 -0 -0 -0 -0 -0 -0 -0
-293 -139 -307 -528 -496 -581 -520 -451 -0 -0 -0 -0 -0 -0 -0 -0 -0 -0 -0 -0 -0 -0 -0 -0 -0 -0 -0 -0 -0 -0 -0 -0 -0
-228 -119 -178 -405 -435 -454 -211 -0 -0 -0 -0 -0 -0 -0 -0 -0 -0 -0 -0 -0 -0 -0 -0 -0 -0 -0 -0 -0 -0 -0 -0 -0 -5
-0 -359 -279 -267 -329 -0 -0 -121 -395 -232 -291 -302 -182 -0 -0 -0 -0 -0 -0 -0 -0 -0 -0 -0 -0 -0 -0 -0 -0 -0 -0 -49 -71
-0 -0 -218 -452 -390 -322 -344 -260 -129 -202 -0 -0 -0 -0 -0 -0 -0 -0 -0 -23 -7 -1 -0 -1 -4 -6 -4 -0 -0 -0 -0 -0 -138
-0 -0 -0 -0 -0 -0 -0 -0 -11 -99 -116 -115 -110 -0 -0 -0 -0 -51 -65 -12 -1 -23 -3 -46 -67 -0 -0 -0 -0 -0 -0 -0 -0
-0 -0 -0 -0 -0 -0 -65 -59 -42 -53 -60 -54 -43 -45 -14 -0 -78 -73 -89 -26 -15 -5 -3 -12 -96 -42 -0 -0 -91 -15 -124 -112 -107
-0 -141 -187 -55 -2 -34 -44 -32 -25 -0 -0 -0 -0 -0 -0 -0 -0 -0 -0 -2 -23 -9 -5 -0 -32 -63 -2 -0 -10 -34 -20 -0 -50
-433 -373 -0 -0 -0 -0 -0 -0 -0 -0 -0 -0 -0 -0 -0 -0 -0 -0 -0 -0 -0 -0 -0 -2 -2 -0 -0 -0 -0 -0 -9 -0 -0
-0 -0 -0 -0 -0 -0 -0 -0 -0 -0 -0 -0 -0 -0 -0 -0 -0 -0 -0 -0 -0 -0 -0 -0 -0 -0 -0 -4 -3 -0 -0 -0 -0
-0 -0 -0 -0 -0 -0 -0 -0 -0 -0 -0 -0 -0 -0 -0 -0 -0 -0 -0 -0 -0 -0 -0 -0 -0 -0 -0 -0 -0 -0 -0 -0 -0
-0 -0 -0 -0 -0 -0 -0 -0 -0 -0 -0 -0 -0 -0 -0 -0 -0 -0 -0 -0 -0 -0 -0 -0 -0 -0 -0 -0 -0 -0 -0 -0 -0
-0 -0 -0 -0 -0 -0 -0 -0 -0 -0 -0 -0 -0 -0 -0 -0 -0 -0 -0 -0 -0 -0 -0 -0 -0 -0 -0 -0 -0 -0 -0 -0 -0
-0 -0 -0 -0 -0 -0 -0 -0 -0 -0 -0 -0 -0 -0 -0 -0 -0 -0 -0 -0 -0 -0 -0 -0 -0 -0 -0 -0 -0 -0 -0 -0 -0
-0 -0 -0 -0 -0 -0 -0 -0 -0 -0 -0 -0 -0 -0 -0 -0 -0 -0 -0 -0 -0 -0 -0 -0 -0 -0 -0 -0 -0 -0 -0 -0 -0
-0 -0 -0 -0 -0 -0 -0 -0 -0 -0 -0 -0 -0 -0 -0 -0 -0 -0 -0 -0 -0 -0 -0 -0 -0 -0 -0 -0 -0 -0 -0 -0 -0
-0 -0 -0 -0 -0 -0 -0 -0 -0 -0 -0 -0 -0 -0 -0 -0 -0 -0 -0 -0 -0 -0 -0 -0 -0 -0 -0 -0 -0 -0 -0 -0 -0
-0 -0 -0 -0 -0 -0 -0 -0 -0 -0 -0 -0 -0 -0 -0 -0 -0 -0 -0 -0 -0 -0 -0 -0 -0 -0 -0 -0 -0 -0 -0 -0 -0
Wind_Speed
5 11 10 7 6 3 2 1 2 3 4 5 5 6 7 5 4 5 7 6 11 10 9 7 8 9 10 11 11 10 11 10 10
8 10 11 9 7 4 2 3 4 5 7 8 8 7 6 4 4 5 6 6 12 13 13 12 10 12 13 13 13 14 14 13 13
8 9 8 6 5 3 4 5 6 8 8 8 9 8 7 5 5 6 5 11 15 15 13 13 14 14 16 15 16 16 15 16 15
3 9 8 5 4 4 5 8 9 9 9 10 10 9 8 5 4 6 4 12 16 16 16 14 14 15 17 18 17 18 18 17 17
6 9 7 5 5 6 8 9 10 10 11 11 11 11 10 6 5 5 6 16 17 16 15 15 14 16 17 18 19 19 20 20 19
5 5 8 7 8 9 10 11 11 10 10 12 13 12 4 6 5 5 14 18 17 17 14 13 16 17 18 19 20 21 22 22 22
6 7 11 10 9 9 10 12 12 9 4 4 8 4 6 5 6 5 16 19 17 18 16 16 16 18 19 20 21 22 23 24 22
4 3 3 3 5 4 5 5 4 5 4 5 5 5 4 3 5 8 15 16 19 20 18 18 18 18 19 20 21 22 24 23 23
1 1 3 3 3 4 3 2 3 4 5 5 4 4 3 2 3 4 9 13 17 20 19 18 19 20 21 22 21 20 24 24 24
1 1 2 3 2 2 3 4 5 6 6 6 6 6 6 6 4 3 9 12 15 18 20 20 18 18 20 20 21 19 20 22 23
3 4 3 5 6 6 5 4 5 5 5 7 7 7 7 7 7 6 7 14 18 18 21 20 20 20 20 21 21 20 21 22 22
6 6 6 5 5 6 6 7 6 6 6 6 6 6 7 6 7 5 5 6 9 15 20 20 19 16 18 21 22 23 21 23 23
7 6 5 5 5 5 5 5 5 5 5 4 5 5 5 6 6 5 5 4 5 8 15 19 17 20 21 22 21 22 23 22 22
8 5 5 6 5 5 4 4 3 4 5 5 5 7 5 5 5 6 8 7 5 5 10 14 14 18 22 24 24 24 25 27 28
6 5 6 5 4 5 4 4 3 2 4 5 6 6 4 3 4 7 7 6 8 5 7 5 10 23 26 24 26 27 27 28 28
6 5 5 5 5 4 5 3 4 3 6 3 5 4 5 4 10 8 7 8 7 10 6 8 10 9 20 22 25 27 31 30 28
6 5 5 6 4 6 5 5 4 3 5 3 2 5 5 6 13 5 10 5 9 8 13 10 10 6 4 11 26 27 26 26 27
6 6 5 5 4 4 3 4 5 3 3 6 3 5 3 12 3 11 4 14 8 8 6 10 10 7 7 11 17 23 30 26 28
6 6 5 5 3 5 3 4 2 3 4 3 3 2 4 4 7 3 13 6 11 9 7 9 7 11 7 16 19 23 27 28 29
6 5 5 4 3 3 4 4 5 2 1 2 3 3 2 5 5 12 4 10 8 9 8 6 9 7 12 8 13 30 29 30 32
Wind_Direction
225 147 146 153 153 162 155 236 278 293 298 300 299 302 300 324 301 299 294 312 294 273 227 234 257 257 259 252 250 247 250 255 245
168 159 161 176 183 189 250 280 303 292 289 279 281 287 287 288 282 282 286 291 289 274 268 262 255 257 251 261 254 258 258 253 255
169 169 181 197 212 211 261 288 306 304 296 292 287 281 267 263 279 278 282 281 285 277 268 268 269 269 270 265 264 256 257 262 262
149 184 199 213 213 260 287 291 298 298 295 291 290 283 271 256 255 273 270 271 276 274 269 268 269 271 272 272 265 268 264 256 258
181 178 206 222 247 275 286 284 284 284 285 285 282 279 277 258 258 267 256 264 270 275 276 267 270 270 272 275 276 274 266 270 255
213 216 229 214 241 261 272 275 276 275 272 272 271 270 241 236 243 245 253 264 265 262 275 269 268 270 272 273 274 272 272 271 264
197 197 198 216 236 252 262 271 271 273 258 266 278 261 245 231 240 245 252 261 265 277 269 260 257 263 267 269 270 271 270 268 271
179 206 246 240 256 259 270 285 280 264 254 261 254 249 235 237 249 250 249 259 275 280 277 266 259 257 264 272 275 272 269 265 263
218 220 214 227 241 253 254 266 298 262 248 253 282 300 293 272 279 292 295 305 317 315 302 291 281 273 266 269 276 270 271 265 259
101 21 33 52 40 30 10 2 4 2 357 356 357 350 341 339 336 313 315 321 321 315 313 300 294 289 284 282 282 284 283 282 273
41 55 32 26 30 35 39 27 17 16 12 359 355 354 355 342 342 342 330 332 350 360 357 352 335 328 320 307 300 295 291 290 284
72 53 38 32 38 37 31 18 19 15 2 352 350 348 330 339 346 334 355 359 339 341 0 357 354 353 358 350 343 335 321 309 301
68 57 38 22 37 36 35 21 7 3 4 340 330 325 328 334 341 7 349 339 342 347 346 358 352 359 352 340 336 330 334 336 338
64 52 32 33 39 32 26 17 24 10 348 332 339 316 317 334 1 348 343 340 348 344 341 343 359 351 347 338 335 332 329 322 317
62 53 41 38 45 28 22 20 357 20 335 327 324 303 309 24 5 339 335 336 340 338 338 354 350 344 340 339 333 328 328 324 320
60 56 45 37 53 36 25 353 359 336 349 357 320 313 311 42 353 332 321 328 343 341 358 348 338 326 337 339 337 327 324 322 315
69 64 51 47 51 34 29 34 353 320 10 348 310 341 324 3 320 325 320 342 339 341 339 325 312 326 324 322 330 319 320 325 320
68 61 62 56 58 44 26 26 29 335 319 10 69 350 319 324 327 315 330 330 319 322 308 307 321 313 320 327 324 323 313 316 315
57 57 58 60 54 40 7 25 26 16 343 346 39 185 238 300 317 335 313 304 324 305 307 310 306 322 319 321 312 314 318 314 311
57 53 51 51 47 28 28 14 9 4 317 338 317 306 290 239 266 302 306 299 305 304 303 304 312 309 316 308 313 315 313 314 311